WESTFORD NEEDLES, 2949

Orbit data source: Space-Track

WESTFORD NEEDLES, 2949 is space debris in LEO originally from a launch on Thu, 09 May 1963 UTC launched from the Air Force Western Test Range (AFWTR). Debris objects in space refer to the collection of defunct objects orbiting the Earth. Examples of debris include non-operational satellites, rocket bodies, and fragments generated from explosions, collisions, or faulty payload assembly.

Loading next visibility...
Identifier
2949, 1963-014AS
Orbit
LEO
Country
Flag of USUS
Related business
Manufacturer
Unknown
Mission
Spacecraft
Bus & Motor
Unknown
Mass
Unknown
Launch date (UTC)
1963-05-09 (62 years ago)
Launch vehicle
Unknown
Launch site
Air Force Western Test Range (AFWTR)
Object type
Payload
Rocket body
Debris
Shape & HBR
Unknown shape, 0.2 m
Radar Cross Section
Medium (>0.1 m² and <1 m²)

Expand to show TLE details & history
Last TLE update: 3 days ago

TLE from 3 days ago
0 WESTFORD NEEDLES
1  2949U 63014AS  25299.25933177  .00001832  00000-0  49714-1 0  9992
2  2949  85.4994  43.0879 2217098   0.6616  16.7978  8.84410622375103
Epoch: 2025-10-26T06:13Z
TLE epoch observation values (Epoch: 2025-10-26T06:13:26.264Z)
Latitude
27.30169°
Longitude
-82.83292°
Altitude
1,463.403 km
Speed
7.834 km/s
True Right ascension
03h 01m 37s
True Declination
27° 10' 28"
Sunlit
Object was in full shadow at epoch
Visualization orbit readout
Latitude
Unknown
Longitude
Unknown
Altitude
Unknown
Speed
Unknown
Apparent Right ascension
Unknown
Apparent Declination
Unknown
Sunlit
N/A
Visualization observer readout
Local Sidereal Time
16:35:38
Azimuth
Unknown
Elevation
Unknown
Doppler factor
Unknown
Orbital elements
Apogee altitude
5,686.023 km
Perigee altitude
1,307.336 km
Semi-major axis
9,874.817 km
Eccentricity
0.22171
Inclination
85.4994°
RAAN
43.0879°
Arg. of periapsis
0.6616°
True anomaly
26.68842°
Mean anomaly
16.7978°
Eccentric anomaly
21.44138°
Mean motion
2.21182 °/min
Orbital period
162.76 mins
BSTAR
0.049714
Loading maneuver chart data...
Computing Atmospheric mass density...

Documentation

Showing up to 5 results
|